Location: Fernhill
(41.0167°S, 175.6333°E)
Time: 23:09:54
(UTC+00:00)

Helios 1A - Pass Details

Date: 08 November 2025
Orbit: 545 x 561 km, 98.2° (Epoch: 04 December)

Event Time Altitude Azimuth Distance (km) Brightness Sun altitude
Exits shadow 09:13:36 30° 336° (NNW) 1,044 4.0 -20.4°
Maximum altitude 09:15:15 48° 280° (W) 759 3.7 -20.7°
Drops below altitude 10° 09:19:14 10° 205° (SSW) 1,894 6.6 -21.2°
Sets 09:21:28 0° 199° (SSW) 2,800 7.6 -21.4°
